Flag for Germany Weather past 2 weeks in Goch, North Rhine-Westphalia, Germany

Now
50 °F

Fog.


Feels Like: 46 °F
Forecast: 47 / 56 °F
Wind: 12 mph from West

Location: Niederrhein

Current Time: Dec 17, 2014 at 9:36:52 PM

Latest Report: Dec 17, 2014 at 8:50 PM


Visibility: 3 mi

Pressure: 29.77 "Hg

Humidity: 100%

Dew point: 50 °F

Location of GochLocation

Historic Weather in Goch — Graph

°F

Goch temperature yesterday

Maximum temperature yesterday: 46 °F (at 12:50 PM)
Minimum temperature yesterday: 37 °F (at 9:50 PM)
Average temperature yesterday: 42 °F

Past Weeks' High & Low Weather Summary

 TemperatureHumidityPressure
High50 °F (Dec 12, 3:20 PM)100% (Dec 3, 5:20 AM)30.36 "Hg (Dec 3, 5:20 AM)
Low28 °F (Dec 3, 4:20 PM)71% (Dec 10, 2:20 PM)29.36 "Hg (Dec 12, 12:20 PM)
Average40 °F96%29.96 "Hg
* Reported Dec 2 8:20 PM — Dec 17 8:20 PM, Goch, Weather by CustomWeather, © 2014

Note: Actual official high and low records may vary slightly from our data, if they occured in-between our weather recording intervals... More about our weather records

Advertising

Goch weather history for previous 24 hours

 ConditionsComfort  
Time TempWeatherWind HumidityBarometerVisibility
8:20 PM
Dec 17
50 °FFog.10 mph100%29.74 "Hg2 mi
7:50 PM50 °FFog.10 mph100%29.74 "Hg2 mi
7:20 PM50 °FFog.12 mph100%29.71 "Hg2 mi
6:50 PM50 °FPassing clouds.10 mph100%29.71 "Hg4 mi
6:20 PM50 °FPassing clouds.10 mph100%29.71 "Hg4 mi
5:50 PM50 °FFog.10 mph100%29.68 "Hg3 mi
5:20 PM50 °FFog.9 mph100%29.68 "Hg3 mi
4:50 PM50 °FLight rain. Fog.12 mph100%29.65 "Hg2 mi
4:20 PM50 °FLight rain. Fog.9 mph100%29.65 "Hg2 mi
3:50 PM50 °FLight rain. Fog.10 mph100%29.62 "Hg2 mi
3:20 PM48 °FLight rain. Partly sunny.13 mph100%29.62 "Hg4 mi
2:50 PM48 °FLight rain. Low clouds.10 mph100%29.62 "Hg1 mi
2:20 PM46 °FLight rain. Low clouds.10 mph100%29.59 "Hg2 mi
1:50 PM46 °FLight rain. Low clouds.10 mph100%29.59 "Hg1 mi
1:20 PM46 °FSprinkles. Partly sunny.13 mph100%29.59 "Hg5 mi
12:50 PM45 °FLight rain. Low clouds.14 mph100%29.59 "Hg4 mi
12:20 PM45 °FLight rain. Low clouds.14 mph100%29.59 "Hg4 mi
11:20 AM43 °FLight rain. Partly sunny.14 mph100%29.59 "HgN/A
10:50 AM43 °FLight rain. Partly sunny.16 mph100%29.59 "HgN/A
10:20 AM41 °FLight rain. Partly sunny.15 mph100%29.62 "Hg6 mi
9:50 AM41 °FSprinkles. Partly sunny.17 mph100%29.62 "Hg6 mi
8:50 AM41 °FSprinkles. Passing clouds.14 mph100%29.65 "Hg6 mi
7:50 AM41 °FLight rain. Passing clouds.12 mph100%29.68 "HgN/A
7:20 AM41 °FPassing clouds.13 mph100%29.71 "HgN/A
6:50 AM41 °FLight rain. Partly cloudy.12 mph100%29.74 "HgN/A
6:20 AM41 °FSprinkles. Passing clouds.12 mph100%29.74 "Hg6 mi
5:50 AM41 °FPassing clouds.12 mph100%29.77 "HgN/A
5:20 AM39 °FClear.10 mph100%29.80 "Hg10 mi
4:50 AM39 °FClear.10 mph100%29.80 "Hg10 mi
11:50 PM
Dec 16
39 °FClear.7 mph100%29.95 "Hg4 mi
11:20 PM37 °FClear.7 mph100%29.92 "Hg6 mi
10:50 PM37 °FClear.7 mph100%29.95 "Hg6 mi
10:20 PM37 °FClear.6 mph100%29.95 "Hg6 mi
9:50 PM37 °FClear.6 mph100%29.95 "Hg10 mi
9:20 PM39 °FClear.6 mph100%29.95 "Hg10 mi
Weather by CustomWeather, © 2014

See weather overviewHow to use our weather pages